Location: Casper
(42.8670°N, 106.3130°W)
Time: 00:45:02
(UTC-06:00)

Daily predictions for brighter satellites

Satellite Brightness Start Highest point End
(mag) Time Altitude Azimuth Time Altitude Azimuth Time Altitude Azimuth
CZ-4B R/B 4.0 00:04:45 15° NNE 00:04:45 15° NNE 00:05:41 10° NNE
Gbstr 26 Del rocket 3.8 00:01:48 10° WNW 00:05:19 46° WNW 00:05:19 46° WNW
Cosmos 1400 Rocket 3.7 00:11:14 50° NW 00:11:14 50° NW 00:14:39 10° N
Cosmos 1536 3.7 00:12:06 47° NNW 00:12:06 47° NNW 00:15:06 10° N
Meteor 2-15 Rocket 4.2 00:10:37 10° N 00:16:47 90° E 00:17:26 73° S
NOSS 3-1 (A) 3.9 00:14:03 10° NW 00:21:40 81° SW 00:23:39 56° SSE
Meteor 2-14 Rocket 4.5 00:20:49 60° SW 00:21:49 72° W 00:27:58 10° N
Cosmos 1447 Rocket 4.5 00:17:52 10° N 00:24:01 65° E 00:24:37 61° ESE
Meteor 2-15 4.4 00:17:58 10° NNW 00:24:02 69° W 00:24:44 63° SW
Cosmos 2369 Rocket 2.0 00:23:58 86° SSW 00:24:07 90° NE 00:29:47 10° NNE
Meteor 1-23 Rocket 4.2 00:20:14 10° NNW 00:25:46 68° W 00:25:57 67° WSW
H-2A R/B 3.6 00:21:27 10° NNE 00:24:44 41° NE 00:24:44 41° NE
Cosmos 1633 4.5 00:33:32 29° NW 00:33:32 29° NW 00:35:52 10° N
CZ-2C R/B 3.8 00:29:27 10° NNE 00:33:24 31° E 00:33:24 31° E
Cosmos 1354 Rocket 4.5 00:29:55 10° NNW 00:34:39 50° W 00:34:39 50° W
H-2A R/B 4.4 00:34:32 11° WSW 00:35:54 12° W 00:38:05 10° WNW
Cosmos 2100 Rocket 4.3 00:37:27 50° ESE 00:37:50 50° E 00:43:58 10° NNE
ATLAS 2AS CENTAUR R/B 3.3 00:34:54 10° NNW 00:43:00 63° NE 00:46:08 38° ESE
Cosmos 1818 3.8 00:47:22 59° ENE 00:47:22 59° ENE 00:52:00 10° NE
MOS 1-B Rocket 4.0 00:45:51 68° SE 00:46:36 77° ENE 00:53:28 10° NNW
NOSS 3-1 (C) 4.4 00:44:23 10° NW 00:51:37 46° WSW 00:52:32 44° SW
Cosmos 2061 Rocket 4.1 00:53:10 60° ESE 00:53:38 61° E 00:59:57 10° NNE
Cosmos 1459 Rocket 4.0 00:53:47 62° ESE 00:53:59 62° E 01:00:00 10° NNE
USA 234 4.1 00:48:02 10° NE 00:54:15 48° NNW 01:00:27 10° W
Meteor 1-5 Rocket 4.3 00:54:20 59° W 00:54:23 59° WNW 00:59:39 10° N
Cosmos 2016 Rocket 4.4 00:56:08 46° E 00:56:23 46° E 01:02:09 10° NNE
Cosmos 1992 Rocket 4.1 00:58:42 69° NW 00:58:42 69° NW 01:03:40 10° NNE
Cosmos 1605 Rocket 4.5 00:57:38 46° WSW 00:58:47 51° WNW 01:05:02 10° N
Cosmos 1602 Rocket 4.3 00:55:01 10° N 00:58:23 51° NNW 00:58:23 51° NNW
Cosmos 1943 Rocket 2.2 01:00:09 69° ENE 01:00:09 69° ENE 01:05:17 10° NNE
ISS -0.4 01:00:01 10° NW 01:02:17 17° N 01:02:38 17° N
Cosmos 1626 Rocket 4.4 00:59:45 10° NNW 01:03:06 49° NNW 01:03:06 49° NNW
Cosmos 1802 Rocket 4.0 01:04:04 63° ESE 01:04:24 64° E 01:10:36 10° NNE
ALOS 2 4.0 01:08:39 33° WNW 01:08:39 33° WNW 01:11:34 10° NNW
Cosmos 1455 Rocket 4.4 01:08:14 34° NW 01:08:14 34° NW 01:11:32 10° N
Cosmos 2173 Rocket 3.8 01:14:29 79° S 01:14:56 88° E 01:21:20 10° N
Lacrosse 5 rocket 3.5 01:19:38 18° NW 01:20:31 19° NNW 01:23:16 10° NNE
Cosmos 1725 Rocket 4.1 01:32:12 58° ESE 01:32:41 59° E 01:38:45 10° NNE
Lacrosse 5 3.7 01:35:50 14° W 01:39:19 28° NNW 01:43:44 10° NNE
Helios 1A Rocket 4.2 01:36:23 10° N 01:39:24 37° NW 01:39:24 37° NW
SeaSat 1 3.4 01:41:00 38° E 01:42:01 42° NE 01:46:39 10° NNW
BREEZE-M DEB (TANK) 3.6 01:38:10 10° WNW 01:42:08 86° SSW 01:58:05 10° ESE
Cosmos 1606 Rocket 4.3 01:44:18 48° NNE 01:44:18 48° NNE 01:47:32 10° NNE
Tsikada Rocket 4.0 01:38:43 10° N 01:45:03 74° E 01:45:55 64° SE
BREEZE-M DEB (TANK) 4.1 01:31:10 10° WNW 01:48:53 72° NNE 01:52:03 21° E
Cosmos 44 Rocket 4.0 01:44:45 10° NW 01:48:32 47° WNW 01:48:32 47° WNW
CZ-2C R/B 3.5 02:02:04 46° WNW 02:02:04 46° WNW 02:06:02 10° NNW
Cosmos 1743 4.2 02:03:53 33° NNW 02:03:53 33° NNW 02:06:19 10° N
Meteor 1-21 4.1 01:57:19 10° NNW 02:02:56 78° W 02:03:00 78° WSW
Cosmos 968 Rocket 4.5 01:59:14 10° NW 02:02:58 35° WNW 02:02:58 35° WNW
Cosmos 2058 Rocket 3.5 02:05:01 59° NNE 02:05:01 59° NNE 02:08:43 10° N
Cosmos 1570 Rocket 4.0 02:05:22 77° E 02:05:22 77° E 02:10:39 10° NNE
PSLV R/B 4.4 02:01:10 10° NNE 02:05:00 47° ENE 02:05:00 47° ENE
Cosmos 1340 4.1 02:03:19 10° N 02:05:46 38° N 02:05:46 38° N
Cosmos 2369 Rocket 4.5 02:05:44 11° W 02:08:57 17° NW 02:12:28 10° N
Cosmos 1953 Rocket 4.5 02:06:30 10° NNW 02:09:35 41° NW 02:09:35 41° NW
NOSS 3-3 (A) 4.0 02:12:16 62° SW 02:13:24 80° NW 02:20:11 10° NE
NOSS 3-3 (C) 4.0 02:12:22 63° SW 02:13:29 81° NW 02:20:17 10° NE
CZ-2C R/B 3.6 02:09:45 10° N 02:14:24 33° WNW 02:14:55 32° W
Meteor 2-9 Rocket 4.2 02:15:38 71° SSE 02:16:15 81° E 02:22:04 10° NNE
Cosmos 1726 Rocket 4.3 02:20:08 45° NW 02:20:08 45° NW 02:23:34 10° N
Cosmos 2219 3.8 02:14:07 10° NW 02:18:42 43° W 02:18:42 43° W
Cosmos 1842 4.4 02:17:24 10° NNW 02:20:06 40° NNW 02:20:06 40° NNW
Cosmos 2227 Rocket 2.8 02:16:41 10° NNW 02:22:16 54° ENE 02:24:42 32° ESE
Meteor 1-15 Rocket 4.2 02:23:25 69° S 02:24:09 84° E 02:30:05 10° NNE
ATLAS CENTAUR R/B 3.2 02:24:30 27° ESE 02:24:30 27° ESE 02:28:32 10° ENE
Cosmos 44 3.6 02:19:55 10° NW 02:24:18 59° WNW 02:24:18 59° WNW
BREEZE-M R/B 4.3 02:19:55 10° WNW 02:27:45 79° NNE 02:33:42 10° ESE
Cosmos 1666 3.9 02:30:40 38° NNW 02:30:40 38° NNW 02:33:15 10° N
ATLAS 2AS CENTAUR R/B 3.7 02:26:37 10° NW 02:33:30 34° WSW 02:33:30 34° WSW
Cosmos 1656 Rocket 4.4 02:33:08 37° W 02:34:14 41° WNW 02:39:34 10° NNE
SL-08 R/B 3.9 02:33:19 43° ESE 02:34:18 51° ENE 02:38:48 10° N
BREEZE-M DEB (TANK) 4.0 02:36:01 21° ENE 02:36:01 21° ENE 02:37:06 10° ENE
Resurs 1-4 Rocket 4.5 02:32:56 10° ENE 02:35:39 14° E 02:38:21 10° ESE
Cosmos 1464 Rocket 4.5 02:34:17 38° SE 02:36:19 54° E 02:42:28 10° NNE
Cosmos 2233 Rocket 3.9 02:36:46 59° SW 02:37:49 71° W 02:43:58 10° N
ISS -0.8 02:41:16 18° ENE 02:41:16 18° ENE 02:42:24 10° E
Cosmos 2278 3.7 02:40:47 60° SSE 02:41:37 70° ESE 02:47:17 10° NNE
Cosmos 2369 3.8 02:42:24 55° SSE 02:43:18 63° ESE 02:48:55 10° NNE
Cosmos 2297 Rocket 2.7 02:38:00 10° NNW 02:43:36 57° ENE 02:47:02 23° SE
Cosmos 1943 Rocket 4.1 02:41:38 15° W 02:44:03 19° NW 02:48:03 10° N
NPP 3.8 02:40:23 10° NNE 02:45:46 64° ESE 02:46:51 52° SSE
Meteor 2-17 Rocket 4.5 02:46:02 53° SW 02:47:12 64° W 02:53:17 10° N
Cosmos 405 Rocket 3.3 02:45:45 10° N 02:49:45 53° ENE 02:49:57 52° E
Cosmos 2208 Rocket 4.5 02:50:42 43° W 02:51:22 46° WNW 02:56:27 10° N
Landsat 4 4.1 02:53:49 59° NNW 02:53:49 59° NNW 02:57:01 10° NNW
Cosmos 1814 Rocket 4.5 02:56:39 44° SSE 02:57:54 54° ESE 03:03:07 10° NNE
CBERS-1 4.1 02:53:40 10° NNE 02:58:49 70° ESE 02:59:56 53° SSE
BREEZE-M DEB (TANK) 3.4 02:54:33 10° WNW 02:58:52 37° WNW 02:58:52 37° WNW
Cosmos 220 Rocket 3.8 02:55:57 10° NNW 03:00:19 85° ENE 03:00:31 81° SE
Cosmos 2298 Rocket 3.9 02:55:49 10° NNW 03:01:09 86° WSW 03:02:30 52° SSE
Cosmos 2228 4.1 03:05:51 32° WNW 03:05:51 32° WNW 03:09:28 10° NNW
ERS-2 2.7 03:04:50 10° NNE 03:08:29 49° E 03:08:38 49° ESE
USA 161 3.2 03:11:10 30° ENE 03:11:10 30° ENE 03:13:35 10° N
Meteor 1-24 Rocket 4.2 03:08:56 10° N 03:14:36 61° ENE 03:18:44 20° SSE
Abrixas 3.9 03:16:08 37° N 03:16:31 39° NNE 03:19:26 10° E
IRAS Rocket 4.2 03:12:54 10° NNE 03:18:35 89° W 03:20:32 43° SSW
SeaSat 1 3.7 03:20:46 25° W 03:20:46 25° W 03:23:49 10° NW
Cosmos 990 Rocket 4.3 03:14:42 10° NNW 03:19:57 65° ENE 03:24:09 16° SSE
Cosmos 858 Rocket 4.4 03:15:32 10° NNW 03:20:46 73° WSW 03:22:28 43° S
Cosmos 1891 Rocket 4.3 03:20:17 39° S 03:22:41 87° W 03:28:51 10° N
Cosmos 468 Rocket 3.9 03:21:35 50° SW 03:22:57 79° WNW 03:28:08 10° NNE
Okean O Rocket 4.3 03:22:21 10° ENE 03:24:07 12° E 03:25:53 10° ESE
Cosmos 1656 3.7 03:24:57 41° SSW 03:27:02 79° ESE 03:32:43 10° NNE
NOSS 2-1 (D) 3.4 03:27:08 57° WSW 03:27:45 68° NW 03:32:15 10° NNE
NOSS 2-1 (C) 3.4 03:28:29 56° WSW 03:29:09 68° NW 03:33:39 10° NNE
Cosmos 1953 4.3 03:26:54 15° SE 03:29:19 25° E 03:32:41 10° NNE
Cosmos 1707 2.7 03:26:56 10° NNW 03:30:49 60° W 03:30:56 59° WSW
SME Rocket 4.4 03:31:25 16° SSE 03:36:09 83° ENE 03:45:01 10° NNW
Cosmos 1408 Rocket 4.1 03:32:18 10° N 03:36:39 57° E 03:39:34 20° SSE
CZ-2D R/B 2.8 03:31:41 10° NNE 03:37:00 50° E 03:40:28 21° SSE
IRS-1C 4.2 03:32:06 10° N 03:37:24 66° WNW 03:39:25 38° SW
Cosmos 2034 Rocket 4.0 03:34:50 35° SSW 03:37:35 70° W 03:43:47 10° N
Cosmos 2150 Rocket 4.3 03:34:00 10° NNW 03:38:57 45° WSW 03:40:01 39° SW
Cosmos 1766 Rocket 4.1 03:35:55 10° N 03:40:17 58° E 03:43:28 18° SSE
AQUA 4.3 03:37:35 10° N 03:42:07 45° WNW 03:43:27 35° WSW
NOSS 2-1 (E) 3.9 03:43:08 39° W 03:44:18 53° NW 03:48:52 10° NNE
Nadezhda 4 Rocket 3.9 03:39:19 10° N 03:45:32 84° W 03:50:07 19° S
Cosmos 1898 Rocket 4.1 03:41:44 10° NW 03:46:39 38° WSW 03:47:47 34° SW
SL-16 R/B 2.5 03:41:26 11° SSE 03:47:25 86° ENE 03:53:38 10° NNW
Cosmos 1125 Rocket 4.2 03:47:48 10° NNW 03:52:56 53° ENE 03:57:59 10° SE
Cosmos 1697 Rocket 2.6 03:50:22 31° SSW 03:53:11 86° WNW 03:58:53 10° NNE
Cosmos 841 Rocket 3.5 03:51:36 30° SSW 03:54:18 85° ESE 03:59:36 10° NNE
Geosat 4.4 03:51:37 10° NNE 03:56:28 50° WNW 03:58:50 28° WSW
NOSS 3-4 (A) 3.8 03:50:09 10° NW 03:57:01 60° WSW 04:04:16 10° SSE
NOSS 3-4 (C) 3.8 03:50:15 10° NW 03:57:09 60° WSW 04:04:26 10° SSE
Cosmos 1937 Rocket 3.9 03:53:01 10° NNW 03:57:53 42° WSW 03:59:50 29° SSW
Cosmos 1763 Rocket 3.5 03:57:36 30° SSW 04:00:13 76° WNW 04:05:25 10° NNE
GEOS 3 Rocket 3.6 03:55:07 10° SE 04:00:20 87° NE 04:05:33 10° NW
Cosmos 1980 Rocket 2.4 03:58:11 23° S 04:01:41 69° ESE 04:07:20 10° NNE
RESURS DK-1 4.3 03:59:25 10° N 04:03:11 32° ENE 04:06:54 10° ESE
ATLAS CENTAUR R/B 2.4 04:00:50 26° WSW 04:03:16 46° NW 04:08:06 10° NNE
Cosmos 2227 Rocket 3.4 04:01:36 10° NW 04:05:53 22° W 04:06:27 22° WSW
CZ-2D R/B 4.2 04:05:44 10° NNE 04:10:00 52° E 04:13:44 13° S
ARIANE 5 R/B 2.7 04:07:07 10° N 04:12:11 61° WNW 04:15:18 23° SW
Cosmos 2322 Rocket 3.6 04:08:45 10° SSE 04:13:44 34° ESE 04:18:43 10° NE
ISS -3.0 04:14:23 23° W 04:15:56 41° SW 04:19:01 10° SSE
ADEOS 4.4 04:11:13 10° N 04:15:58 36° WNW 04:18:43 22° WSW
Resurs 1-4 Rocket 2.1 04:10:47 10° N 04:16:03 74° WNW 04:19:45 20° SSW
Cosmos 2026 Rocket 4.3 04:10:09 10° N 04:16:31 71° E 04:22:44 10° SSE
EP 1 4.3 04:16:18 49° WSW 04:16:45 62° NW 04:19:24 10° NNE
Cosmos 1461 3.7 04:12:54 10° NNW 04:16:59 51° NE 04:20:53 10° SE
Cosmos 1634 Rocket 4.0 04:18:24 14° S 04:23:47 80° W 04:30:08 10° N
Cosmos 1470 4.0 04:22:30 10° SSE 04:26:12 40° E 04:29:57 10° NNE
UNK 4.1 04:23:05 18° SSW 04:26:16 44° W 04:30:45 10° NNW
Cosmos 2297 Rocket 3.4 04:23:02 10° NW 04:27:10 21° W 04:28:44 19° WSW
Cosmos 540 Rocket 3.8 04:22:45 13° S 04:27:19 65° ESE 04:32:27 10° NNE
Cosmos 2195 Rocket 4.4 04:21:28 10° N 04:27:37 84° W 04:33:43 10° S
PSLV R/B 4.3 04:26:12 10° NNE 04:30:00 56° E 04:33:43 10° S
Cosmos 1378 4.2 04:26:54 10° NNW 04:30:11 28° W 04:31:33 22° SW
Cosmos 1092 Rocket 4.3 04:29:35 10° NNW 04:35:33 47° W 04:41:33 10° SSW
Thor Agena Rocket 4.2 04:32:35 10° SSE 04:37:30 58° ENE 04:42:28 10° N
CZ-4B R/B 3.8 04:35:17 10° NNE 04:39:04 44° E 04:42:39 10° S
Cosmos 2151 4.3 04:35:26 10° N 04:39:33 42° ENE 04:43:38 10° SSE
IRS-1D 4.3 04:35:53 10° N 04:40:23 36° WNW 04:43:53 16° SW
Lacrosse 5 rocket 4.1 04:39:56 10° NNW 04:41:45 13° NNE 04:43:35 10° NE
ERS-2 4.4 04:40:08 10° NW 04:41:51 13° WNW 04:43:28 10° W
CZ-2C R/B 3.7 04:38:48 10° SSE 04:43:29 85° WSW 04:48:09 10° NNW
Cosmos 2360 4.2 04:40:39 14° SSW 04:45:38 77° WNW 04:51:23 10° NNE
SL-16 R/B 2.7 04:41:29 10° S 04:47:02 60° ESE 04:52:37 10° NNE
Cosmos 1500 Rocket 3.5 04:43:26 10° NNW 04:47:50 74° W 04:52:10 10° S
UNKNOWN OBJECT B 3.4 04:44:17 10° N 04:47:58 40° WNW 04:50:52 15° SW
GPS 2-04 Rocket1 3.8 04:46:09 17° SW 04:48:17 25° S 04:51:29 10° SE
Abrixas 2.8 04:49:38 10° WNW 04:52:34 43° SSW 04:55:30 10° SE
Cosmos 1743 Rocket 3.9 04:48:49 10° NNW 04:52:56 43° W 04:57:04 10° SSW
Milstar 3 Cent rocket 3.9 04:53:52 12° SW 04:57:46 23° S 05:04:18 10° SE
Cosmos 2263 Rocket 3.1 04:55:02 10° NNW 05:00:30 52° ENE 05:05:55 10° SE
Okean O Rocket 1.7 04:56:33 10° N 05:00:55 65° WNW 05:05:16 10° SSW
Cosmos 1758 4.5 04:58:12 13° SW 05:01:11 27° WNW 05:04:38 10° NNW
Cosmos 1428 Rocket 4.4 04:55:16 10° N 05:01:26 81° W 05:07:31 10° S
SL-24 R/B - RUBIN 2 4.4 04:59:41 10° SW 05:05:25 87° WNW 05:11:54 10° NE
Cosmos 1805 4.5 05:02:32 12° SW 05:05:31 26° WNW 05:08:51 10° NNW
Cosmos 1953 3.7 05:02:41 11° SW 05:05:42 24° WNW 05:09:03 10° NNW
CZ-4B R/B 3.2 05:00:59 10° NNE 05:06:33 81° WNW 05:11:58 10° SSW
PAYLOAD B 4.3 05:01:04 10° NNE 05:06:42 78° WNW 05:12:16 10° SSW
Lacrosse 5 4.3 05:04:23 10° NNW 05:08:26 23° NNE 05:12:27 10° ENE
Cosmos 1733 3.1 05:05:10 10° SSW 05:08:57 76° W 05:12:47 10° N
Cosmos 1328 3.9 05:05:20 10° N 05:09:24 82° E 05:13:26 10° S
Cosmos-2242 4.4 05:06:47 10° SW 05:10:10 23° WNW 05:13:37 10° NNW
Cosmos 2221 3.1 05:06:51 10° S 05:11:03 60° E 05:15:18 10° NNE
UNK 3.4 05:10:18 10° NW 05:12:44 32° NNE 05:14:39 10° E
CZ-2D R/B 3.5 05:12:27 10° NNW 05:16:44 24° WNW 05:20:58 10° WSW
Cosmos 2279 Rocket 4.3 05:11:51 10° SSW 05:17:55 52° WNW 05:24:03 10° N
ARGOS Delta rocket 4.0 05:14:28 10° N 05:19:34 65° WNW 05:24:21 10° SSW
Cosmos 1544 4.3 05:18:58 10° SW 05:22:02 25° WNW 05:25:06 10° NNW
Cosmos 372 Rocket 4.4 05:17:27 10° NW 05:22:13 40° WSW 05:26:56 10° S
MOZ.5/SAFIR/RUBIN 5/SL-8 4.3 05:19:07 10° SSW 05:23:30 38° W 05:27:52 10° NNW
ADEOS II 2.7 05:20:01 10° NNE 05:25:14 61° ESE 05:30:25 10° S
